Location: Hamilton
(37.7830°S, 175.2830°E)
Time: 16:50:52
(UTC+12:00)

Cosmos 1151 Rocket - Pass Details

Date: 24 January 2019
Orbit: 593 x 615 km, 82.5° (Epoch: 19 April)

Event Time Altitude Azimuth Distance (km) Brightness Sun altitude
Exits shadow 21:47:58 -1° 353° (N) 2,923 6.2 -12.6°
Rises 21:48:12 0° 353° (N) 2,827 6.1 -12.6°
Reaches altitude 10° 21:50:23 10° 353° (N) 1,935 5.3 -13.0°
Maximum altitude 21:54:40 86° 265° (W) 613 3.0 -13.7°
Drops below altitude 10° 21:59:03 10° 174° (S) 1,975 6.1 -14.3°
Sets 22:01:17 0° 173° (S) 2,890 7.0 -14.7°
